EW8032 Weather Reports


Display with metric or nautical units.
time (UTC)temp
F
wind
direction
speed
MPH
gust
MPH
rain 1hr
in
rain 24hr
in
rain mn
in
humidity
%
barometer
mb
20260507203212 61 64 0.0 3.0 0.00 0.21 0.18 78 1010.9
20260507203049 62 57 1.0 3.0 0.00 0.21 0.18 78 1011.0
20260507203006 62 57 1.0 3.0 0.00 0.21 0.18 78 1010.9
20260507202859 62 54 0.0 2.0 0.00 0.21 0.18 78 1010.9
20260507202741 62 44 0.0 0.0 0.00 0.21 0.18 77 1011.0
20260507202638 62 44 0.0 0.0 0.00 0.21 0.18 77 1010.9
20260507202330 62 44 0.0 0.0 0.00 0.21 0.18 77 1010.9
20260507202242 62 44 0.0 0.0 0.00 0.21 0.18 77 1011.0
20260507202226 62 44 0.0 0.0 0.00 0.21 0.18 77 1010.9
20260507202146 62 44 0.0 0.0 0.00 0.21 0.18 77 1010.9
20260507201806 62 44 0.0 0.0 0.00 0.21 0.18 77 1010.9
20260507201729 62 44 0.0 0.0 0.00 0.21 0.18 76 1010.9
20260507201636 62 44 0.0 0.0 0.00 0.21 0.18 76 1010.9
20260507201552 62 44 0.0 0.0 0.00 0.21 0.18 76 1010.9
20260507201242 62 44 0.0 0.0 0.00 0.21 0.18 76 1010.9
20260507201204 62 44 0.0 0.0 0.00 0.21 0.18 76 1010.9
20260507200844 63 44 0.0 0.0 0.00 0.22 0.18 76 1010.8
20260507200744 63 44 0.0 0.0 0.00 0.22 0.18 75 1010.8
20260507200642 63 44 0.0 0.0 0.00 0.22 0.18 75 1010.7
20260507200539 63 44 0.0 0.0 0.00 0.22 0.18 75 1010.8
20260507200456 63 44 0.0 0.0 0.01 0.22 0.18 75 1010.8
20260507200130 63 44 0.0 0.0 0.01 0.22 0.18 75 1010.7
20260507200055 63 44 0.0 0.0 0.01 0.22 0.18 75 1010.7
20260507195921 63 44 0.0 0.0 0.01 0.22 0.18 75 1010.8
20260507195824 63 44 0.0 0.0 0.01 0.22 0.18 74 1010.8
20260507195723 63 44 0.0 0.0 0.01 0.22 0.18 75 1010.7
20260507195701 64 44 0.0 0.0 0.01 0.22 0.18 75 1010.7
20260507195326 64 44 0.0 0.0 0.01 0.22 0.18 74 1010.7
20260507195014 64 44 0.0 0.0 0.01 0.23 0.18 74 1010.7
20260507194926 64 44 0.0 0.0 0.01 0.23 0.18 74 1010.7
20260507194824 64 44 0.0 0.0 0.01 0.23 0.18 74 1010.7
20260507194758 64 44 0.0 0.0 0.01 0.23 0.18 74 1010.6
20260507194724 64 44 0.0 0.0 0.01 0.23 0.18 74 1010.5
20260507194638 64 44 0.0 0.0 0.01 0.23 0.18 73 1010.5
20260507194536 64 44 0.0 2.0 0.01 0.23 0.18 73 1010.6
20260507194427 64 44 0.0 2.0 0.01 0.23 0.18 73 1010.6
20260507194326 64 44 0.0 2.0 0.01 0.23 0.18 73 1010.5
20260507194258 64 44 0.0 2.0 0.01 0.23 0.18 73 1010.5
20260507194225 65 44 0.0 2.0 0.01 0.23 0.18 73 1010.5
20260507194113 65 44 1.0 2.0 0.01 0.23 0.18 72 1010.7
20260507193954 65 44 0.0 3.0 0.01 0.23 0.18 72 1010.6
20260507193830 65 58 1.0 3.0 0.01 0.23 0.18 71 1010.7
20260507193707 65 55 0.0 3.0 0.01 0.24 0.18 70 1010.6
20260507193614 65 68 0.0 3.0 0.01 0.24 0.18 70 1010.6
20260507193230 65 68 2.0 3.0 0.01 0.24 0.18 70 1010.6
20260507193040 65 65 2.0 4.0 0.01 0.24 0.18 70 1010.5
20260507192648 66 67 0.0 4.0 0.01 0.24 0.18 70 1010.5
20260507192513 66 108 0.0 4.0 0.01 0.24 0.18 69 1010.5
20260507192437 66 108 1.0 4.0 0.01 0.24 0.18 69 1010.6
20260507192354 66 108 1.0 4.0 0.01 0.24 0.18 69 1010.6
20260507192220 66 90 2.0 4.0 0.01 0.24 0.18 69 1010.5
20260507192035 66 67 2.0 4.0 0.01 0.24 0.18 69 1010.4
20260507191851 66 90 1.0 4.0 0.01 0.24 0.18 69 1010.5
20260507191727 66 96 2.0 5.0 0.00 0.23 0.18 69 1010.5
20260507191632 66 91 1.0 5.0 0.00 0.23 0.17 69 1010.5
20260507191522 66 80 1.0 6.0 0.00 0.23 0.17 69 1010.5
20260507191343 66 67 1.0 6.0 0.00 0.24 0.17 69 1010.4
20260507191214 66 87 2.0 6.0 0.00 0.24 0.17 69 1010.4
20260507190827 66 69 3.0 6.0 0.00 0.24 0.17 68 1010.4
20260507190653 66 71 3.0 6.0 0.00 0.24 0.17 68 1010.4
20260507190554 66 77 3.0 6.0 0.00 0.24 0.17 68 1010.4
20260507190111 66 68 2.0 5.0 0.00 0.24 0.17 68 1010.4
20260507185928 67 63 3.0 5.0 0.00 0.24 0.17 68 1010.4
20260507185751 67 63 2.0 5.0 0.00 0.24 0.17 68 1010.3
20260507185620 67 76 2.0 5.0 0.00 0.24 0.17 68 1010.4
20260507185154 67 55 3.0 4.0 0.00 0.24 0.17 68 1010.3
20260507184821 67 57 2.0 5.0 0.00 0.24 0.17 67 1010.2
20260507184641 67 66 2.0 7.0 0.00 0.24 0.17 68 1010.3
20260507184502 67 90 3.0 7.0 0.00 0.24 0.17 67 1010.2
20260507184406 67 69 3.0 7.0 0.00 0.24 0.17 67 1010.3
20260507183924 67 64 4.0 7.0 0.00 0.24 0.17 67 1010.3
20260507183733 67 63 4.0 7.0 0.00 0.24 0.17 67 1010.2
20260507183540 67 63 5.0 7.0 0.00 0.24 0.17 66 1010.3
20260507183359 67 61 5.0 7.0 0.00 0.24 0.17 66 1010.2
20260507183303 67 73 5.0 9.0 0.00 0.24 0.17 65 1010.2
20260507183214 67 67 5.0 9.0 0.00 0.24 0.17 66 1010.3
20260507183034 67 65 4.0 9.0 0.00 0.24 0.17 66 1010.3
20260507182848 67 59 4.0 9.0 0.00 0.24 0.17 65 1010.3
20260507182214 68 65 4.0 8.0 0.00 0.25 0.17 65 1010.4
20260507182120 68 65 4.0 7.0 0.00 0.25 0.17 66 1010.4
20260507181948 68 71 4.0 7.0 0.00 0.25 0.17 65 1010.5
20260507181755 68 40 4.0 7.0 0.00 0.25 0.17 66 1010.6
20260507181613 68 64 4.0 7.0 0.00 0.25 0.17 66 1010.6
20260507181207 68 52 4.0 8.0 0.00 0.25 0.17 65 1010.6
20260507181027 68 59 3.0 9.0 0.00 0.25 0.17 65 1010.6
20260507180542 68 113 4.0 9.0 0.00 0.25 0.17 64 1010.5
20260507180405 68 92 4.0 9.0 0.00 0.25 0.17 64 1010.6
20260507180310 68 105 5.0 9.0 0.00 0.26 0.17 64 1010.6
20260507180208 68 74 5.0 9.0 0.00 0.26 0.17 64 1010.6
20260507180033 68 144 3.0 8.0 0.00 0.26 0.17 64 1010.6
20260507175734 68 58 3.0 8.0 0.00 0.26 0.17 64 1010.6
20260507175601 68 105 3.0 8.0 0.01 0.26 0.17 64 1010.6
20260507175426 68 109 4.0 8.0 0.01 0.26 0.17 64 1010.6
20260507175330 68 117 5.0 11.0 0.01 0.26 0.17 63 1010.7
20260507175236 68 132 6.0 11.0 0.01 0.26 0.17 63 1010.5
20260507174757 68 81 4.0 11.0 0.01 0.26 0.17 63 1010.6
20260507174745 68 135 4.0 11.0 0.01 0.26 0.17 63 1010.6
20260507174606 68 123 7.0 11.0 0.01 0.26 0.17 63 1010.5
20260507174431 68 105 4.0 11.0 0.01 0.26 0.17 62 1010.6
20260507174035 68 110 5.0 8.0 0.01 0.27 0.17 64 1010.6
20260507173851 68 127 4.0 8.0 0.01 0.27 0.17 63 1010.5
20260507173717 68 140 3.0 8.0 0.01 0.27 0.17 63 1010.5
20260507173701 68 103 3.0 8.0 0.01 0.27 0.17 63 1010.5
20260507173521 68 101 4.0 8.0 0.01 0.27 0.17 63 1010.6
20260507173341 69 132 4.0 8.0 0.01 0.27 0.17 62 1010.6
20260507173301 68 109 4.0 8.0 0.01 0.27 0.17 63 1010.6
20260507173154 68 69 3.0 8.0 0.01 0.27 0.17 63 1010.6
20260507173021 68 101 6.0 8.0 0.01 0.27 0.17 62 1010.5
20260507172851 69 106 6.0 10.0 0.01 0.27 0.17 62 1010.5
20260507172836 69 124 6.0 10.0 0.01 0.27 0.17 62 1010.4
20260507172320 69 115 4.0 12.0 0.01 0.27 0.17 62 1010.5
20260507172214 69 107 6.0 12.0 0.01 0.27 0.17 62 1010.5
20260507171810 69 115 5.0 12.0 0.01 0.28 0.17 62 1010.5
20260507171746 68 108 5.0 11.0 0.01 0.28 0.17 62 1010.6
20260507171606 69 111 7.0 9.0 0.01 0.28 0.17 62 1010.6
20260507171153 69 117 6.0 9.0 0.01 0.28 0.17 62 1010.5
20260507171013 69 98 3.0 9.0 0.01 0.28 0.17 62 1010.5
20260507170331 68 102 6.0 10.0 0.01 0.28 0.17 61 1010.5
20260507170257 68 90 6.0 10.0 0.01 0.28 0.17 61 1010.5
20260507170137 68 107 6.0 10.0 0.01 0.28 0.17 61 1010.5
20260507165956 68 124 6.0 10.0 0.01 0.28 0.17 61 1010.5
20260507165849 68 116 4.0 12.0 0.01 0.28 0.17 62 1010.4
20260507165806 68 113 4.0 12.0 0.01 0.28 0.17 62 1010.6
20260507165114 69 105 6.0 12.0 0.00 0.28 0.17 61 1010.6
20260507164934 69 150 8.0 12.0 0.00 0.28 0.17 61 1010.5
20260507164815 69 138 6.0 10.0 0.00 0.28 0.17 61 1010.5
20260507164725 69 126 6.0 10.0 0.00 0.28 0.17 61 1010.5
20260507164542 69 94 4.0 10.0 0.00 0.28 0.17 60 1010.4
20260507164042 69 87 4.0 10.0 0.00 0.28 0.17 61 1010.5
20260507163859 70 116 4.0 10.0 0.00 0.28 0.17 62 1010.4
20260507163742 69 122 5.0 10.0 0.00 0.28 0.17 60 1010.4
20260507163656 70 154 5.0 10.0 0.00 0.28 0.17 62 1010.4
20260507163520 69 109 6.0 10.0 0.00 0.28 0.17 61 1010.3
20260507163339 69 119 4.0 10.0 0.00 0.28 0.17 61 1010.4
20260507163322 69 88 5.0 11.0 0.00 0.28 0.17 61 1010.4
20260507162930 69 60 6.0 11.0 0.00 0.28 0.17 60 1010.3
20260507162832 69 76 6.0 13.0 0.00 0.28 0.17 62 1010.4
20260507161913 69 111 7.0 14.0 0.00 0.29 0.17 61 1010.3
20260507161809 69 112 6.0 14.0 0.00 0.29 0.17 61 1010.4
20260507161715 69 96 8.0 14.0 0.00 0.29 0.17 61 1010.4
20260507161231 69 173 6.0 14.0 0.00 0.29 0.17 61 1010.3
20260507161042 69 99 8.0 13.0 0.00 0.29 0.17 60 1010.2
20260507160902 69 117 8.0 13.0 0.00 0.29 0.17 61 1010.3
20260507160806 69 82 7.0 13.0 0.00 0.29 0.17 62 1010.3
20260507160712 69 115 8.0 13.0 0.00 0.29 0.17 61 1010.3
20260507155152 69 127 7.0 12.0 0.01 0.30 0.17 63 1010.3
20260507155011 69 132 9.0 15.0 0.01 0.30 0.17 63 1010.2
20260507154830 69 67 7.0 15.0 0.01 0.30 0.17 62 1010.3
20260507154738 69 135 8.0 15.0 0.01 0.30 0.17 62 1010.2
20260507154635 69 97 9.0 15.0 0.01 0.30 0.17 61 1010.3
20260507154458 69 123 9.0 15.0 0.01 0.30 0.17 61 1010.1
20260507154309 69 95 6.0 15.0 0.01 0.30 0.17 62 1010.3
20260507154127 69 94 5.0 13.0 0.01 0.30 0.17 61 1010.3
20260507153738 69 91 6.0 13.0 0.01 0.31 0.17 61 1010.3
20260507153329 69 58 5.0 14.0 0.01 0.31 0.17 62 1010.4
20260507152857 69 101 9.0 14.0 0.01 0.31 0.17 61 1010.3
20260507152801 69 67 10.0 14.0 0.01 0.31 0.17 61 1010.3
20260507152707 69 111 7.0 14.0 0.01 0.31 0.17 61 1010.3
20260507152526 69 93 6.0 14.0 0.01 0.31 0.17 63 1010.4
20260507152335 69 105 9.0 14.0 0.01 0.31 0.17 61 1010.4
20260507151900 69 114 6.0 11.0 0.01 0.31 0.17 62 1010.5
20260507151809 69 80 7.0 11.0 0.01 0.31 0.17 61 1010.6
20260507151711 69 109 7.0 13.0 0.01 0.31 0.17 62 1010.6
20260507151531 69 101 6.0 13.0 0.01 0.31 0.17 62 1010.7
20260507151222 69 88 8.0 13.0 0.01 0.31 0.17 62 1010.6
20260507151038 69 132 8.0 13.0 0.01 0.31 0.17 62 1010.7
20260507150901 69 128 9.0 14.0 0.01 0.31 0.17 62 1010.8
20260507150753 69 87 8.0 14.0 0.01 0.31 0.17 61 1010.7
20260507150659 69 87 7.0 14.0 0.01 0.31 0.17 61 1010.8
20260507150518 69 84 8.0 14.0 0.01 0.32 0.17 62 1010.8
20260507150332 69 61 7.0 14.0 0.01 0.32 0.17 62 1010.8
20260507145930 69 74 8.0 12.0 0.01 0.32 0.17 63 1010.9
20260507145822 68 75 6.0 12.0 0.01 0.32 0.17 62 1010.8
20260507145351 68 105 8.0 12.0 0.00 0.31 0.16 62 1010.9
20260507145145 68 100 6.0 14.0 0.00 0.31 0.16 62 1011.0
20260507145011 68 111 9.0 14.0 0.00 0.31 0.16 62 1010.9
20260507144830 68 98 8.0 14.0 0.00 0.31 0.16 63 1011.1
20260507144735 68 78 9.0 16.0 0.00 0.32 0.16 63 1010.9
20260507144640 68 100 10.0 16.0 0.00 0.32 0.16 63 1011.0
20260507144225 68 92 7.0 16.0 0.00 0.32 0.16 64 1010.9
20260507144044 68 86 9.0 16.0 0.00 0.32 0.16 62 1011.0
20260507143902 68 51 9.0 16.0 0.00 0.32 0.16 62 1011.0
20260507143457 68 45 5.0 11.0 0.00 0.32 0.16 63 1011.1
20260507143142 68 114 7.0 15.0 0.00 0.32 0.16 65 1011.1
20260507143001 68 69 8.0 15.0 0.00 0.32 0.16 65 1011.2
20260507142820 68 134 6.0 15.0 0.00 0.33 0.16 64 1011.2
20260507142727 68 61 7.0 15.0 0.00 0.33 0.16 63 1011.1
20260507142632 68 103 9.0 15.0 0.00 0.33 0.16 63 1011.2
20260507142236 68 124 5.0 15.0 0.01 0.33 0.16 67 1011.4
20260507142058 68 94 7.0 15.0 0.01 0.33 0.16 66 1011.4
20260507141931 68 107 9.0 15.0 0.01 0.33 0.16 66 1011.4
20260507141512 68 105 7.0 14.0 0.01 0.33 0.16 64 1011.5
20260507141207 68 112 8.0 14.0 0.01 0.34 0.16 65 1011.4
20260507141031 67 90 4.0 14.0 0.01 0.34 0.16 65 1011.5
20260507140854 67 107 9.0 14.0 0.01 0.34 0.16 63 1011.5
20260507140752 67 89 9.0 14.0 0.01 0.34 0.16 63 1011.5
20260507140706 67 120 9.0 14.0 0.01 0.34 0.16 63 1011.6
20260507140527 67 90 5.0 12.0 0.01 0.34 0.16 65 1011.6
20260507140256 67 74 8.0 13.0 0.01 0.34 0.16 64 1011.6
20260507135636 67 109 7.0 13.0 0.01 0.34 0.16 63 1011.8
20260507135455 67 55 9.0 13.0 0.01 0.35 0.16 64 1011.8
20260507135313 67 116 7.0 12.0 0.01 0.35 0.16 63 1011.8
20260507135248 67 130 7.0 12.0 0.01 0.35 0.16 63 1011.8
20260507135127 67 77 8.0 14.0 0.01 0.35 0.16 64 1011.8
20260507134626 67 80 8.0 14.0 0.01 0.35 0.16 64 1011.8
20260507134447 67 113 8.0 14.0 0.01 0.35 0.16 64 1011.8
20260507134305 67 78 8.0 14.0 0.01 0.35 0.16 64 1011.8
20260507133852 67 50 6.0 14.0 0.01 0.35 0.16 64 1011.9
20260507133430 67 80 9.0 14.0 0.01 0.35 0.16 63 1012.0
20260507133053 67 115 7.0 13.0 0.01 0.35 0.16 64 1012.1
20260507132925 67 128 6.0 13.0 0.01 0.35 0.16 65 1012.1
20260507132746 67 90 7.0 13.0 0.01 0.35 0.16 66 1012.1
20260507132637 67 125 4.0 11.0 0.01 0.35 0.16 65 1012.1
20260507132556 67 97 4.0 11.0 0.01 0.35 0.16 65 1012.1
20260507132419 67 40 7.0 12.0 0.00 0.35 0.15 65 1012.1
20260507132239 67 74 4.0 12.0 0.00 0.35 0.15 65 1012.1
20260507132214 67 84 4.0 14.0 0.00 0.35 0.15 64 1012.0
20260507132047 66 86 4.0 16.0 0.00 0.35 0.15 64 1012.0
20260507131733 66 121 8.0 16.0 0.00 0.35 0.15 64 1012.3
20260507131327 66 95 8.0 16.0 0.01 0.35 0.15 66 1012.2
20260507131145 66 149 11.0 16.0 0.01 0.35 0.15 65 1012.2
20260507131125 66 149 7.0 16.0 0.01 0.35 0.15 65 1012.2
20260507130951 66 86 4.0 13.0 0.01 0.35 0.15 64 1012.3
20260507130805 66 135 6.0 13.0 0.01 0.35 0.15 62 1012.2
20260507130654 66 103 7.0 13.0 0.01 0.35 0.15 63 1012.3
20260507130605 66 92 7.0 13.0 0.01 0.35 0.15 64 1012.3
20260507130420 66 157 9.0 13.0 0.01 0.35 0.15 64 1012.4
20260507130149 66 100 7.0 14.0 0.01 0.35 0.15 63 1012.4
20260507130008 66 113 6.0 14.0 0.01 0.35 0.15 66 1012.4
20260507125558 65 96 9.0 14.0 0.01 0.35 0.15 64 1012.4
20260507125417 66 98 6.0 14.0 0.01 0.36 0.15 65 1012.4
20260507124921 66 103 7.0 12.0 0.01 0.36 0.15 66 1012.4
20260507124741 65 106 4.0 12.0 0.01 0.36 0.15 66 1012.5
20260507124645 65 49 4.0 12.0 0.01 0.36 0.15 66 1012.5
20260507124551 65 119 5.0 13.0 0.01 0.36 0.15 68 1012.5
20260507124415 65 116 7.0 13.0 0.01 0.36 0.15 64 1012.6
20260507124222 65 74 8.0 13.0 0.01 0.36 0.15 65 1012.6
20260507123552 65 78 8.0 13.0 0.01 0.36 0.15 64 1012.7
20260507123458 65 55 6.0 13.0 0.01 0.36 0.15 68 1012.6
20260507123317 65 107 6.0 13.0 0.01 0.36 0.15 69 1012.5
20260507123130 65 48 6.0 13.0 0.01 0.36 0.15 67 1012.6
20260507122945 65 35 9.0 13.0 0.01 0.37 0.15 65 1012.5
20260507122805 65 40 8.0 12.0 0.01 0.37 0.15 65 1012.6
20260507122709 65 51 9.0 12.0 0.01 0.37 0.15 67 1012.6
20260507122615 65 78 7.0 13.0 0.01 0.37 0.15 66 1012.6
20260507121623 65 139 8.0 14.0 0.01 0.37 0.15 64 1012.7
20260507121422 65 119 8.0 15.0 0.01 0.37 0.15 65 1012.8
20260507121334 65 86 8.0 15.0 0.02 0.37 0.15 64 1012.8
20260507121229 65 65 5.0 15.0 0.01 0.36 0.15 66 1012.7
20260507121033 64 135 7.0 15.0 0.01 0.36 0.14 65 1012.7
20260507120858 64 49 11.0 15.0 0.01 0.36 0.14 65 1012.9
20260507120843 64 92 11.0 15.0 0.01 0.36 0.14 65 1012.9
20260507120700 64 44 6.0 15.0 0.01 0.36 0.14 65 1012.9
20260507120519 64 42 6.0 12.0 0.01 0.36 0.14 66 1012.8
20260507120438 64 75 6.0 12.0 0.01 0.36 0.14 66 1012.8
20260507120330 64 78 8.0 12.0 0.01 0.36 0.14 66 1012.8
20260507120153 64 80 7.0 12.0 0.01 0.36 0.14 65 1012.9
20260507120024 64 67 7.0 11.0 0.01 0.37 0.14 67 1012.9
20260507120006 64 37 7.0 11.0 0.01 0.37 0.14 66 1012.9
20260507115824 64 82 6.0 12.0 0.01 0.37 0.14 68 1013.0
20260507115648 64 114 4.0 12.0 0.01 0.37 0.14 69 1012.9
20260507115258 64 53 4.0 12.0 0.01 0.37 0.14 67 1012.9
20260507115119 64 9 8.0 12.0 0.01 0.37 0.14 68 1013.0
20260507114957 64 61 7.0 12.0 0.01 0.37 0.14 68 1013.1
20260507114930 64 63 7.0 12.0 0.01 0.37 0.14 68 1013.0
20260507114751 64 128 7.0 10.0 0.01 0.37 0.14 68 1013.0
20260507114614 64 46 6.0 10.0 0.01 0.37 0.14 69 1013.1
20260507114535 64 105 5.0 10.0 0.01 0.37 0.14 69 1013.2
20260507114424 64 100 5.0 10.0 0.01 0.37 0.14 69 1013.2
20260507114243 64 67 6.0 10.0 0.01 0.37 0.14 70 1013.2
20260507114121 64 80 5.0 10.0 0.01 0.37 0.14 70 1013.1
20260507114055 64 121 5.0 10.0 0.01 0.37 0.14 70 1013.1
20260507113911 64 107 6.0 10.0 0.01 0.37 0.14 68 1013.2
20260507113733 64 99 5.0 10.0 0.01 0.37 0.14 70 1013.2
20260507113704 64 110 5.0 10.0 0.01 0.37 0.14 70 1013.2
20260507113545 64 178 6.0 10.0 0.01 0.38 0.14 70 1013.3
20260507113401 64 121 5.0 12.0 0.01 0.38 0.14 68 1013.3
20260507112731 63 94 7.0 12.0 0.01 0.38 0.14 68 1013.4
20260507112334 63 112 5.0 9.0 0.01 0.38 0.14 67 1013.4
20260507112217 63 98 6.0 9.0 0.01 0.38 0.14 67 1013.4
20260507112144 63 130 6.0 9.0 0.01 0.38 0.14 67 1013.5
20260507111122 63 105 6.0 11.0 0.01 0.37 0.13 66 1013.5
20260507110957 63 84 5.0 11.0 0.01 0.37 0.13 64 1013.6
20260507110919 63 102 5.0 11.0 0.01 0.37 0.13 65 1013.4
20260507110736 63 49 6.0 11.0 0.01 0.37 0.13 65 1013.5
20260507110554 62 103 4.0 11.0 0.01 0.37 0.13 68 1013.6
20260507110529 62 109 4.0 11.0 0.01 0.37 0.13 67 1013.5
20260507110357 62 75 6.0 11.0 0.01 0.37 0.13 66 1013.5
20260507110215 62 55 6.0 11.0 0.01 0.37 0.13 66 1013.6
20260507110110 62 67 6.0 11.0 0.01 0.38 0.13 66 1013.6
20260507110021 62 79 6.0 11.0 0.01 0.38 0.13 66 1013.6
20260507105842 62 76 6.0 11.0 0.01 0.38 0.13 68 1013.7
20260507105709 62 64 5.0 11.0 0.01 0.38 0.13 67 1013.7
20260507105644 62 90 4.0 10.0 0.01 0.38 0.13 67 1013.7
20260507105517 62 74 3.0 10.0 0.01 0.38 0.13 68 1013.7
20260507105339 62 92 6.0 10.0 0.01 0.38 0.13 67 1013.8
20260507104702 62 77 4.0 10.0 0.01 0.38 0.13 67 1013.7
20260507104653 62 90 4.0 10.0 0.01 0.38 0.13 67 1013.7
20260507104511 62 83 6.0 10.0 0.01 0.38 0.13 67 1013.8
20260507104059 62 109 7.0 11.0 0.01 0.38 0.13 69 1013.8
20260507103912 62 59 4.0 11.0 0.01 0.38 0.13 69 1013.8
20260507103651 62 74 7.0 11.0 0.01 0.38 0.13 69 1013.8
20260507103502 61 90 5.0 11.0 0.01 0.38 0.13 68 1013.9
20260507103318 61 77 4.0 9.0 0.01 0.38 0.13 68 1013.9
20260507103005 61 58 6.0 9.0 0.01 0.38 0.13 69 1013.8
20260507102828 61 115 3.0 9.0 0.01 0.39 0.13 69 1013.9
20260507102632 61 84 5.0 9.0 0.01 0.39 0.13 71 1013.9
20260507102451 61 116 6.0 9.0 0.01 0.39 0.13 75 1013.9
20260507102310 61 128 4.0 9.0 0.01 0.39 0.13 75 1013.9
20260507101949 60 78 4.0 9.0 0.01 0.39 0.13 75 1013.9
20260507101816 60 89 6.0 9.0 0.00 0.38 0.13 76 1014.0
20260507101623 60 59 3.0 9.0 0.00 0.38 0.13 76 1014.0
20260507101439 60 117 5.0 10.0 0.01 0.38 0.13 75 1014.0
20260507101255 60 91 5.0 10.0 0.01 0.38 0.13 75 1013.9
20260507100843 60 65 6.0 10.0 0.01 0.38 0.13 74 1013.9
20260507100701 60 93 6.0 10.0 0.01 0.38 0.13 76 1014.0
20260507100512 60 111 6.0 10.0 0.01 0.38 0.13 79 1013.9
20260507100331 60 77 6.0 10.0 0.01 0.38 0.13 78 1013.9
20260507100151 60 78 7.0 10.0 0.01 0.38 0.13 78 1014.0
20260507100059 60 92 5.0 10.0 0.01 0.38 0.13 79 1014.0
20260507100012 60 105 4.0 10.0 0.01 0.38 0.13 81 1014.0
20260507095828 60 113 4.0 9.0 0.01 0.39 0.13 80 1014.0
20260507095624 60 63 5.0 10.0 0.01 0.39 0.13 81 1014.0
20260507095442 59 74 4.0 10.0 0.01 0.39 0.13 82 1014.0
20260507095305 59 101 6.0 10.0 0.01 0.39 0.13 81 1014.0
20260507094823 59 61 6.0 10.0 0.01 0.39 0.13 83 1014.0
20260507094626 59 121 5.0 10.0 0.01 0.39 0.13 84 1014.0
20260507094444 59 124 6.0 10.0 0.01 0.39 0.13 83 1013.9
20260507094039 58 113 6.0 10.0 0.01 0.39 0.13 83 1014.0
20260507093945 58 57 7.0 10.0 0.01 0.39 0.13 83 1013.9
20260507093759 58 80 7.0 11.0 0.01 0.39 0.13 83 1013.9
20260507093610 58 103 4.0 11.0 0.01 0.39 0.13 85 1013.9
20260507093429 58 88 5.0 11.0 0.01 0.39 0.13 85 1014.0
20260507093246 58 68 5.0 11.0 0.01 0.39 0.13 84 1014.0
20260507092505 58 126 5.0 11.0 0.02 0.39 0.13 86 1014.0
20260507092320 58 117 7.0 11.0 0.02 0.39 0.13 86 1014.0
20260507092134 57 93 5.0 11.0 0.02 0.39 0.13 87 1013.9
20260507092035 57 70 6.0 11.0 0.02 0.39 0.13 87 1014.0
20260507091552 57 92 6.0 11.0 0.02 0.39 0.13 89 1014.0
20260507091400 57 61 4.0 9.0 0.01 0.39 0.13 90 1014.0
20260507090806 57 99 3.0 9.0 0.01 0.39 0.12 92 1014.2
20260507090707 57 121 1.0 8.0 0.01 0.39 0.12 93 1014.0
20260507090227 56 96 2.0 7.0 0.01 0.39 0.12 94 1014.1
20260507090021 56 72 1.0 7.0 0.01 0.39 0.12 94 1014.1
20260507085836 56 75 3.0 8.0 0.01 0.39 0.12 94 1014.1
20260507085335 56 77 5.0 8.0 0.01 0.39 0.12 95 1014.1
20260507085241 56 104 5.0 8.0 0.01 0.39 0.12 95 1014.1
20260507085104 56 114 2.0 8.0 0.01 0.39 0.12 95 1014.2
20260507084910 56 48 5.0 8.0 0.01 0.39 0.12 96 1014.1
20260507084727 55 71 3.0 8.0 0.01 0.39 0.12 96 1014.2
20260507084535 55 74 3.0 8.0 0.01 0.39 0.12 96 1014.1
20260507084439 55 57 2.0 8.0 0.02 0.39 0.12 97 1014.3
20260507084005 55 111 3.0 8.0 0.02 0.39 0.12 97 1014.2
20260507083551 55 113 4.0 8.0 0.02 0.39 0.12 97 1014.1
20260507083410 55 76 5.0 8.0 0.02 0.39 0.12 98 1014.2
20260507082914 55 67 2.0 7.0 0.02 0.39 0.12 98 1014.2
20260507082812 55 98 2.0 7.0 0.02 0.39 0.12 99 1014.1
20260507082624 54 125 3.0 7.0 0.02 0.39 0.12 98 1014.2
20260507082424 54 109 2.0 7.0 0.02 0.39 0.12 99 1014.1
20260507082245 54 98 4.0 7.0 0.02 0.39 0.12 98 1014.2
20260507082052 54 117 4.0 7.0 0.02 0.39 0.12 99 1014.2
20260507081956 54 111 4.0 7.0 0.02 0.39 0.12 99 1014.1
20260507081515 54 138 2.0 5.0 0.02 0.39 0.12 99 1014.2
20260507080712 54 79 2.0 4.0 0.01 0.39 0.11 99 1014.1
20260507080528 54 93 2.0 4.0 0.01 0.39 0.11 99 1014.1
20260507080428 54 117 2.0 3.0 0.01 0.39 0.11 99 1014.1
20260507080339 54 70 2.0 3.0 0.01 0.39 0.11 99 1014.1
20260507080200 54 77 1.0 3.0 0.01 0.39 0.11 100 1014.1
20260507080014 53 92 1.0 3.0 0.01 0.39 0.11 99 1014.1
20260507075859 53 98 2.0 4.0 0.01 0.39 0.11 99 1014.0
20260507075712 53 60 2.0 4.0 0.01 0.39 0.11 100 1014.1
20260507075340 53 46 1.0 4.0 0.02 0.39 0.11 99 1014.0
20260507075211 53 53 2.0 4.0 0.02 0.39 0.11 99 1014.0
20260507074757 53 55 2.0 4.0 0.02 0.39 0.11 99 1014.1
20260507074621 53 47 1.0 4.0 0.02 0.39 0.11 99 1014.0
20260507074144 52 146 0.0 4.0 0.02 0.39 0.11 99 1014.0
20260507074105 52 74 1.0 4.0 0.02 0.39 0.11 99 1014.0
20260507073555 52 114 2.0 4.0 0.02 0.39 0.11 99 1014.1
20260507073421 52 48 1.0 4.0 0.02 0.39 0.11 100 1014.1
20260507073250 52 84 2.0 4.0 0.02 0.39 0.11 99 1014.1
20260507073151 52 67 1.0 4.0 0.01 0.38 0.10 100 1014.1
20260507073057 51 72 1.0 3.0 0.01 0.38 0.10 100 1014.0
20260507072932 51 67 1.0 3.0 0.01 0.39 0.10 100 1014.0
20260507072746 51 98 0.0 3.0 0.01 0.39 0.10 99 1014.0
20260507072036 51 80 2.0 3.0 0.01 0.39 0.10 100 1014.1
20260507071951 51 81 2.0 3.0 0.01 0.39 0.10 100 1014.1
20260507071847 51 89 1.0 3.0 0.01 0.39 0.10 100 1014.1
20260507071311 50 82 0.0 3.0 0.01 0.39 0.10 99 1014.1
20260507071159 50 80 2.0 3.0 0.01 0.39 0.10 99 1014.1
20260507070956 50 77 2.0 3.0 0.01 0.39 0.10 99 1014.1
20260507070919 50 71 2.0 3.0 0.01 0.39 0.10 99 1014.1
20260507070813 50 71 1.0 3.0 0.01 0.39 0.10 99 1014.1
20260507070627 49 56 2.0 3.0 0.01 0.39 0.10 99 1014.1
20260507070508 49 71 2.0 3.0 0.01 0.39 0.10 100 1014.1
20260507070056 49 106 1.0 3.0 0.02 0.39 0.10 99 1014.1
20260507065647 49 52 2.0 3.0 0.02 0.39 0.10 99 1014.2
20260507065536 49 62 2.0 3.0 0.02 0.39 0.10 99 1014.1
20260507065020 48 83 2.0 3.0 0.02 0.39 0.10 99 1014.2
20260507064610 48 78 2.0 3.0 0.02 0.39 0.10 99 1014.2
20260507064413 48 16 2.0 3.0 0.01 0.38 0.09 99 1014.1
20260507064319 48 11 2.0 3.0 0.01 0.38 0.09 99 1014.1
20260507064205 48 11 2.0 3.0 0.01 0.38 0.09 99 1014.1
20260507064027 48 313 1.0 2.0 0.01 0.38 0.09 99 1014.1
20260507063647 48 313 0.0 2.0 0.01 0.38 0.09 99 1014.1
20260507063519 47 313 0.0 2.0 0.01 0.38 0.09 99 1014.1
20260507063359 47 313 1.0 2.0 0.01 0.38 0.09 99 1014.1
20260507063245 47 313 1.0 2.0 0.01 0.38 0.09 99 1014.1
20260507063129 47 313 0.0 3.0 0.01 0.38 0.09 99 1014.1
20260507063006 47 313 1.0 3.0 0.01 0.38 0.09 99 1014.1
20260507062919 47 313 1.0 3.0 0.01 0.38 0.09 99 1014.1
20260507062828 47 313 1.0 3.0 0.01 0.38 0.09 99 1014.1
20260507062259 46 313 1.0 3.0 0.01 0.38 0.09 99 1014.2
20260507061804 46 313 0.0 1.0 0.01 0.39 0.09 99 1014.0
20260507061631 46 313 0.0 1.0 0.01 0.39 0.09 99 1014.0
20260507061554 46 313 0.0 0.0 0.01 0.39 0.09 98 1014.1
20260507061455 46 313 0.0 0.0 0.01 0.39 0.09 98 1014.1
20260507061356 46 313 0.0 0.0 0.01 0.39 0.09 99 1014.1
20260507061242 46 313 0.0 0.0 0.01 0.39 0.09 98 1014.1
20260507061138 46 313 0.0 0.0 0.01 0.39 0.09 99 1014.1
20260507061109 46 313 0.0 0.0 0.01 0.39 0.09 99 1014.0
20260507061031 46 313 0.0 0.0 0.01 0.39 0.09 99 1014.1
20260507060351 45 313 0.0 0.0 0.02 0.39 0.09 98 1014.2
20260507060233 45 313 0.0 0.0 0.02 0.39 0.09 98 1014.1
20260507055532 45 313 0.0 0.0 0.02 0.39 0.09 98 1014.2
20260507055434 45 313 0.0 0.0 0.01 0.38 0.09 98 1014.1
20260507055332 45 313 0.0 0.0 0.01 0.38 0.09 99 1014.0
20260507054932 45 313 0.0 0.0 0.01 0.38 0.09 99 1014.0
20260507054833 45 313 0.0 0.0 0.01 0.38 0.09 99 1013.9
20260507054108 45 313 0.0 0.0 0.01 0.38 0.09 99 1013.9
20260507053935 45 313 0.0 0.0 0.01 0.38 0.09 99 1013.9
20260507053718 53 265 0.0 0.0 0.02 0.40 0.38 92 1015.0
20260507053646 45 313 0.0 0.0 0.01 0.38 0.09 98 1013.8
20260507053545 45 313 0.0 0.0 0.01 0.38 0.09 98 1013.8
20260507053517 45 313 0.0 0.0 0.01 0.38 0.09 98 1013.9
20260507053345 45 313 0.0 0.0 0.01 0.38 0.09 98 1013.9
20260507052932 44 313 0.0 0.0 0.01 0.38 0.09 98 1013.8
20260507052812 44 313 0.0 0.0 0.01 0.38 0.09 98 1013.8
20260507052807 53 265 0.0 0.0 0.02 0.39 0.37 92 1015.0
20260507052615 44 313 0.0 0.0 0.01 0.38 0.09 98 1013.8
20260507052458 45 313 0.0 0.0 0.01 0.38 0.09 98 1013.9
20260507052433 44 313 0.0 0.0 0.01 0.38 0.09 98 1014.0
20260507052211 44 313 0.0 0.0 0.01 0.38 0.09 98 1013.9
20260507052017 44 313 0.0 0.0 0.01 0.38 0.09 98 1013.8
20260507051927 44 313 0.0 0.0 0.01 0.38 0.09 98 1013.8
20260507051809 44 313 0.0 0.0 0.01 0.38 0.09 98 1013.9
20260507051616 44 313 0.0 0.0 0.01 0.39 0.09 98 1013.8
20260507051459 44 313 0.0 0.0 0.01 0.39 0.09 98 1013.8
20260507051440 44 313 0.0 0.0 0.01 0.39 0.09 98 1013.7
20260507051316 44 313 0.0 0.0 0.01 0.39 0.09 98 1013.8
20260507051201 44 313 0.0 0.0 0.02 0.39 0.09 98 1013.8
20260507051114 44 313 0.0 0.0 0.02 0.39 0.09 98 1013.8
20260507051009 44 313 0.0 0.0 0.02 0.39 0.09 98 1013.7
20260507050919 44 313 0.0 0.0 0.02 0.39 0.09 98 1013.7
20260507050817 44 313 0.0 0.0 0.02 0.39 0.09 98 1013.8
20260507050802 44 313 0.0 0.0 0.02 0.39 0.09 98 1013.7
20260507050621 44 313 0.0 0.0 0.02 0.39 0.09 98 1013.7
20260507050233 44 313 0.0 0.0 0.01 0.38 0.08 98 1013.6
20260507050127 44 313 0.0 0.0 0.01 0.38 0.08 98 1013.6
20260507045457 44 313 0.0 0.0 0.01 0.38 0.08 98 1013.6
20260507045331 44 313 0.0 0.0 0.01 0.38 0.08 98 1013.7
20260507045241 44 313 0.0 0.0 0.01 0.38 0.08 98 1013.7
20260507044930 44 313 0.0 0.0 0.01 0.38 0.08 98 1013.6
20260507044725 44 313 0.0 0.0 0.01 0.38 0.08 97 1013.6
20260507044359 44 313 0.0 0.0 0.01 0.38 0.08 97 1013.6
20260507044214 44 313 0.0 0.0 0.01 0.38 0.08 97 1013.6
20260507044100 44 313 0.0 0.0 0.01 0.38 0.08 97 1013.6
20260507044008 44 313 0.0 0.0 0.01 0.38 0.08 97 1013.7
20260507043443 45 313 0.0 0.0 0.01 0.38 0.08 98 1013.6
20260507043413 45 313 0.0 0.0 0.01 0.38 0.08 98 1013.6
20260507043252 53 265 0.0 0.0 0.02 0.39 0.37 92 1015.0
20260507043210 45 313 0.0 0.0 0.01 0.38 0.08 98 1013.7
20260507043037 45 313 0.0 0.0 0.01 0.38 0.08 98 1013.7
20260507042929 45 313 0.0 0.0 0.01 0.38 0.08 98 1013.6
20260507042806 45 313 0.0 0.0 0.01 0.38 0.08 98 1013.7
20260507042640 45 313 0.0 0.0 0.01 0.39 0.08 98 1013.7
20260507042522 45 313 0.0 0.0 0.01 0.39 0.08 98 1013.7
20260507042338 45 313 0.0 0.0 0.02 0.39 0.08 98 1013.8
20260507041939 45 313 0.0 0.0 0.02 0.39 0.08 98 1013.8
20260507041834 45 313 0.0 0.0 0.02 0.39 0.08 98 1013.7
20260507041726 45 313 0.0 0.0 0.02 0.39 0.08 98 1013.8
20260507041624 45 313 0.0 0.0 0.02 0.39 0.08 98 1013.7
20260507041607 45 313 0.0 0.0 0.02 0.39 0.08 98 1013.8
20260507041144 45 313 0.0 0.0 0.02 0.39 0.08 98 1013.8
20260507040950 46 313 0.0 0.0 0.01 0.38 0.07 98 1013.8
20260507040904 46 313 0.0 0.0 0.01 0.38 0.07 98 1013.8
20260507040741 46 313 0.0 0.0 0.01 0.38 0.07 98 1013.8
20260507040712 53 265 0.0 0.0 0.02 0.39 0.37 91 1014.8
20260507040547 46 313 0.0 0.0 0.01 0.38 0.07 98 1013.7
20260507040407 46 313 0.0 0.0 0.01 0.38 0.07 98 1013.8
20260507040359 46 313 0.0 0.0 0.01 0.38 0.07 98 1013.7
20260507040149 46 313 0.0 0.0 0.01 0.38 0.07 98 1013.8
20260507040025 46 313 0.0 0.0 0.01 0.38 0.07 98 1013.6
20260507035952 46 313 0.0 0.0 0.01 0.38 0.07 98 1013.7
20260507035826 46 313 0.0 0.0 0.01 0.38 0.07 98 1013.7
20260507035728 46 313 0.0 0.0 0.01 0.38 0.07 98 1013.7
20260507035412 46 313 0.0 0.0 0.01 0.38 0.07 98 1013.6
20260507035233 46 313 0.0 0.0 0.01 0.38 0.07 98 1013.7
20260507035123 46 313 0.0 0.0 0.01 0.38 0.07 98 1013.8
20260507034737 46 313 0.0 0.0 0.01 0.38 0.07 98 1013.7
20260507034721 54 265 0.0 0.0 0.02 0.40 0.37 90 1014.8
20260507034657 54 265 0.0 0.0 0.02 0.40 0.37 90 1014.7
20260507034607 54 265 0.0 0.0 0.02 0.39 0.36 90 1014.8
20260507034537 46 313 0.0 0.0 0.01 0.38 0.07 98 1013.7
20260507034458 54 265 0.0 0.0 0.02 0.39 0.36 90 1014.6
20260507034406 46 313 0.0 0.0 0.01 0.38 0.07 98 1013.8
20260507034351 46 313 0.0 0.0 0.01 0.38 0.07 98 1013.7
20260507034227 54 265 0.0 1.0 0.02 0.39 0.36 90 1014.6
20260507034137 46 313 0.0 0.0 0.01 0.38 0.07 98 1013.7
20260507033939 46 313 0.0 0.0 0.01 0.38 0.07 98 1013.7
20260507033913 55 255 0.0 3.0 0.02 0.39 0.35 88 1014.3
20260507033839 46 313 0.0 0.0 0.01 0.38 0.07 98 1013.7
20260507033725 46 313 0.0 0.0 0.01 0.39 0.07 98 1013.7
20260507033531 46 313 0.0 0.0 0.02 0.39 0.07 98 1013.7
20260507033354 46 313 0.0 0.0 0.02 0.39 0.07 98 1013.7
20260507033128 46 313 0.0 0.0 0.02 0.39 0.07 98 1013.8
20260507033024 46 313 0.0 0.0 0.02 0.39 0.07 98 1013.7
20260507032957 46 313 0.0 0.0 0.02 0.39 0.07 98 1013.7
20260507032847 46 313 0.0 0.0 0.02 0.39 0.07 98 1013.7
20260507032753 46 313 0.0 0.0 0.02 0.39 0.07 97 1013.8
20260507032433 46 313 0.0 0.0 0.01 0.38 0.07 97 1013.8
20260507032235 46 313 0.0 0.0 0.01 0.38 0.06 97 1013.8
20260507031935 56 261 2.0 4.0 0.02 0.39 0.35 87 1014.2
20260507031904 46 313 0.0 0.0 0.01 0.38 0.06 97 1013.8
20260507031826 46 313 0.0 0.0 0.01 0.38 0.06 97 1013.8
20260507031707 46 313 0.0 0.0 0.01 0.38 0.06 97 1013.8
20260507031509 46 313 0.0 0.0 0.01 0.38 0.06 97 1013.8
20260507031359 46 313 0.0 0.0 0.01 0.38 0.06 97 1013.8
20260507031112 46 313 0.0 0.0 0.01 0.38 0.06 98 1013.9
20260507030934 46 313 0.0 0.0 0.01 0.38 0.06 98 1013.9
20260507030804 46 313 0.0 0.0 0.01 0.38 0.06 98 1013.9
20260507030653 46 313 0.0 0.0 0.01 0.38 0.06 98 1013.9
20260507030618 46 313 0.0 0.0 0.01 0.38 0.06 98 1013.9
20260507030604 46 313 0.0 0.0 0.01 0.38 0.06 98 1014.0
20260507025836 46 313 0.0 0.0 0.01 0.39 0.06 97 1013.9
20260507025712 56 264 2.0 4.0 0.02 0.40 0.35 86 1014.1
20260507025642 46 313 0.0 0.0 0.01 0.39 0.06 97 1014.0
20260507025506 56 270 0.0 4.0 0.02 0.40 0.35 86 1014.2
20260507025438 46 313 0.0 0.0 0.01 0.39 0.06 97 1013.9
20260507025334 46 313 0.0 0.0 0.02 0.39 0.06 97 1014.0
20260507025316 46 313 0.0 0.0 0.02 0.39 0.06 97 1014.0
20260507025057 46 313 0.0 0.0 0.02 0.39 0.06 97 1014.0
20260507024926 46 313 0.0 0.0 0.02 0.39 0.06 97 1014.0
20260507024756 46 313 0.0 0.0 0.02 0.39 0.06 97 1013.9
20260507024341 46 313 0.0 0.0 0.02 0.39 0.06 97 1013.9
20260507024328 46 313 0.0 0.0 0.02 0.39 0.06 97 1013.9
20260507024154 56 263 2.0 6.0 0.02 0.39 0.35 85 1014.1
20260507024057 46 313 0.0 0.0 0.02 0.39 0.06 97 1013.9
20260507023934 46 313 0.0 0.0 0.02 0.39 0.06 97 1013.9
20260507023821 46 313 0.0 0.0 0.01 0.38 0.06 97 1013.8
20260507023402 47 313 0.0 0.0 0.01 0.38 0.06 97 1013.9
20260507023344 46 313 0.0 0.0 0.01 0.38 0.06 97 1013.8
20260507023140 47 313 0.0 0.0 0.01 0.38 0.06 97 1013.9
20260507023032 47 313 0.0 0.0 0.01 0.38 0.06 97 1013.9
20260507023014 47 313 0.0 0.0 0.01 0.38 0.06 97 1013.8
20260507022511 47 313 0.0 0.0 0.01 0.38 0.06 97 1013.9
20260507022416 47 313 0.0 0.0 0.01 0.38 0.06 98 1013.8
20260507022343 47 313 0.0 0.0 0.01 0.38 0.06 98 1013.8
20260507022158 47 313 0.0 0.0 0.01 0.38 0.06 98 1013.8
20260507021834 47 313 0.0 0.0 0.01 0.39 0.06 98 1013.8
20260507021624 47 313 0.0 0.0 0.01 0.39 0.06 98 1013.9
20260507021420 47 313 0.0 0.0 0.02 0.39 0.06 98 1013.9
20260507021334 47 313 0.0 0.0 0.02 0.39 0.06 98 1013.8
20260507021300 47 313 0.0 0.0 0.02 0.39 0.06 98 1013.9
20260507021145 56 276 2.0 6.0 0.02 0.39 0.35 85 1014.1
20260507021023 47 313 0.0 0.0 0.02 0.39 0.06 98 1014.0
20260507020936 56 259 2.0 6.0 0.02 0.39 0.35 84 1014.0
20260507020839 47 313 0.0 0.0 0.02 0.39 0.06 98 1013.9
20260507020659 47 313 0.0 0.0 0.02 0.39 0.06 97 1013.9
20260507020612 47 313 0.0 0.0 0.02 0.39 0.06 97 1013.9
20260507020543 47 313 0.0 0.0 0.02 0.39 0.06 98 1013.9
20260507020522 47 313 0.0 0.0 0.02 0.39 0.06 97 1013.9
20260507020339 46 313 0.0 0.0 0.02 0.39 0.06 97 1013.8
20260507020243 47 313 0.0 0.0 0.02 0.39 0.06 97 1013.9
20260507020107 46 313 0.0 0.0 0.02 0.39 0.06 97 1013.8
20260507015452 47 313 0.0 0.0 0.01 0.38 0.05 97 1013.8
20260507015319 47 313 0.0 0.0 0.01 0.38 0.05 97 1013.8
20260507015232 47 313 0.0 0.0 0.01 0.38 0.05 97 1013.8
20260507014843 47 313 0.0 0.0 0.01 0.38 0.05 97 1013.9
20260507014748 47 313 0.0 0.0 0.01 0.38 0.05 97 1013.8
20260507014437 47 313 0.0 0.0 0.01 0.39 0.05 97 1014.0
20260507014305 46 313 0.0 0.0 0.01 0.39 0.05 97 1013.9
20260507014211 47 313 0.0 0.0 0.01 0.39 0.05 97 1013.9
20260507014123 47 313 0.0 0.0 0.01 0.39 0.05 97 1013.9
20260507013747 47 313 0.0 0.0 0.02 0.39 0.05 97 1013.9
20260507013721 47 313 0.0 0.0 0.02 0.39 0.05 97 1014.0
20260507013319 47 313 0.0 0.0 0.02 0.39 0.05 97 1014.0
20260507012612 47 313 0.0 0.0 0.02 0.39 0.05 97 1014.0
20260507012314 47 313 0.0 0.0 0.02 0.39 0.05 97 1014.0
20260507012142 47 313 0.0 0.0 0.02 0.39 0.05 97 1014.1
20260507012038 47 313 0.0 0.0 0.02 0.39 0.05 97 1014.0
20260507011600 47 313 0.0 0.0 0.02 0.39 0.05 97 1014.1
20260507011400 46 313 0.0 0.0 0.01 0.38 0.05 97 1014.0
20260507011317 47 313 0.0 0.0 0.01 0.38 0.04 97 1014.0
20260507011235 47 313 0.0 0.0 0.01 0.39 0.04 97 1014.1
20260507011049 47 313 0.0 0.0 0.01 0.39 0.04 96 1014.1
20260507010952 47 313 0.0 0.0 0.01 0.39 0.04 96 1014.0
20260507010937 47 313 0.0 0.0 0.01 0.39 0.04 96 1014.0
20260507010405 47 313 0.0 0.0 0.01 0.39 0.04 97 1014.1
20260507010340 47 313 0.0 0.0 0.01 0.39 0.04 97 1014.2
20260507010230 47 313 0.0 0.0 0.01 0.39 0.04 97 1014.1
20260507010122 47 313 0.0 0.0 0.01 0.39 0.04 97 1014.1
20260507010050 47 313 0.0 0.0 0.01 0.39 0.04 97 1014.1
20260507010029 47 313 0.0 0.0 0.01 0.39 0.04 97 1014.2
20260507005836 47 313 0.0 0.0 0.01 0.39 0.04 97 1014.3
20260507005515 47 313 0.0 0.0 0.02 0.39 0.04 97 1014.3
20260507005319 47 313 0.0 0.0 0.02 0.39 0.04 97 1014.2
20260507005157 47 313 0.0 0.0 0.02 0.39 0.04 96 1014.2
20260507004841 47 313 0.0 0.0 0.02 0.39 0.04 96 1014.3
20260507004638 47 313 0.0 0.0 0.02 0.39 0.04 96 1014.4
20260507004540 47 313 0.0 0.0 0.02 0.39 0.04 97 1014.4
20260507004141 48 313 0.0 0.0 0.02 0.39 0.04 97 1014.3
20260507004054 48 313 0.0 0.0 0.02 0.39 0.04 97 1014.4
20260507004031 48 313 0.0 0.0 0.02 0.39 0.04 97 1014.4
20260507003549 48 313 0.0 0.0 0.02 0.39 0.04 97 1014.5
20260507003450 48 313 0.0 0.0 0.01 0.39 0.03 97 1014.5
20260507003438 48 313 0.0 0.0 0.01 0.39 0.03 97 1014.5
20260507003227 48 313 0.0 0.0 0.01 0.39 0.03 97 1014.5
20260507003115 48 313 0.0 0.0 0.01 0.39 0.03 97 1014.6
20260507003100 48 313 0.0 0.0 0.01 0.39 0.03 97 1014.5
20260507002607 48 313 0.0 0.0 0.01 0.39 0.03 97 1014.6
20260507002531 48 313 0.0 0.0 0.01 0.39 0.03 97 1014.5
20260507002516 48 313 0.0 0.0 0.01 0.39 0.03 97 1014.6
20260507002333 48 313 0.0 0.0 0.02 0.39 0.03 97 1014.5
20260507002229 48 313 0.0 0.0 0.02 0.39 0.03 96 1014.5
20260507002213 48 313 0.0 0.0 0.02 0.39 0.03 96 1014.6
20260507002145 48 313 0.0 0.0 0.02 0.39 0.03 96 1014.5
20260507001654 48 313 0.0 0.0 0.02 0.39 0.03 96 1014.5
20260507001553 48 313 0.0 0.0 0.02 0.39 0.03 96 1014.6
20260507001213 48 313 0.0 0.0 0.02 0.39 0.03 96 1014.5
20260507001133 48 313 0.0 0.0 0.02 0.39 0.03 96 1014.5
20260507000931 48 313 0.0 0.0 0.02 0.39 0.03 96 1014.5
20260507000626 48 313 0.0 0.0 0.02 0.39 0.03 96 1014.5
20260507000421 48 313 0.0 0.0 0.02 0.39 0.03 96 1014.6
20260507000328 48 313 0.0 0.0 0.02 0.39 0.03 96 1014.6
20260506235925 48 313 0.0 0.0 0.02 0.39 0.03 96 1014.7
20260506235812 48 313 0.0 0.0 0.01 0.39 0.02 97 1014.6
20260506235707 48 313 0.0 0.0 0.01 0.39 0.02 97 1014.7
20260506235620 48 313 0.0 0.0 0.01 0.39 0.02 97 1014.7
20260506235254 48 313 0.0 0.0 0.02 0.39 0.02 96 1014.7
20260506235220 48 313 0.0 0.0 0.02 0.39 0.02 96 1014.7
20260506235119 48 313 0.0 0.0 0.02 0.39 0.02 96 1014.7
20260506235042 48 313 0.0 0.0 0.02 0.39 0.02 96 1014.6
20260506234403 49 313 0.0 0.0 0.02 0.39 0.02 96 1014.6
20260506234312 49 313 0.0 0.0 0.02 0.39 0.02 96 1014.6
20260506234212 49 313 0.0 1.0 0.02 0.39 0.02 96 1014.6
20260506234132 49 313 0.0 1.0 0.02 0.39 0.02 96 1014.6
20260506234112 49 313 0.0 1.0 0.02 0.39 0.02 96 1014.6
20260506234014 49 313 0.0 1.0 0.02 0.39 0.02 96 1014.5
20260506233711 49 313 0.0 1.0 0.02 0.39 0.02 96 1014.6
20260506233248 48 313 0.0 1.0 0.02 0.39 0.02 95 1014.6
20260506233207 48 290 0.0 0.0 0.02 0.40 0.02 96 1014.5
20260506233134 48 290 0.0 0.0 0.02 0.40 0.02 96 1014.6
20260506233019 49 290 0.0 0.0 0.01 0.39 0.02 96 1014.7
20260506232926 49 290 0.0 0.0 0.01 0.39 0.02 96 1014.7
20260506232846 49 290 0.0 0.0 0.02 0.39 0.02 96 1014.7
20260506232751 49 290 0.0 0.0 0.02 0.39 0.02 96 1014.8
20260506232722 49 290 0.0 0.0 0.02 0.39 0.02 95 1014.8
20260506232655 49 290 0.0 0.0 0.02 0.39 0.02 95 1014.8
20260506232306 49 290 0.0 0.0 0.02 0.39 0.02 95 1014.8
20260506231058 49 290 0.0 0.0 0.02 0.39 0.02 95 1014.8
20260506230953 49 290 0.0 0.0 0.02 0.39 0.02 95 1014.8
20260506230647 49 290 0.0 0.0 0.02 0.39 0.02 95 1014.7
20260506230255 50 290 0.0 0.0 0.02 0.39 0.02 96 1014.7
20260506230236 50 290 0.0 0.0 0.02 0.40 0.02 96 1014.7
20260506225840 50 290 0.0 0.0 0.01 0.39 0.02 96 1014.7
20260506225729 50 290 0.0 0.0 0.01 0.39 0.01 95 1014.8
20260506225349 50 290 0.0 0.0 0.02 0.39 0.01 95 1014.7
20260506225330 50 290 0.0 0.0 0.02 0.39 0.01 95 1014.7
20260506225254 50 290 0.0 0.0 0.02 0.39 0.01 95 1014.8
20260506224657 50 290 0.0 0.0 0.02 0.39 0.01 95 1014.8
20260506224552 50 290 0.0 0.0 0.02 0.39 0.01 95 1014.7
20260506224229 50 290 0.0 0.0 0.02 0.39 0.01 95 1014.8
20260506224154 50 290 0.0 0.0 0.02 0.39 0.01 95 1014.8
20260506222949 50 290 0.0 0.0 0.02 0.39 0.01 95 1014.8
20260506222934 50 290 0.0 0.0 0.02 0.40 0.01 95 1014.8
20260506222901 50 290 0.0 0.0 0.02 0.40 0.01 95 1014.8
20260506222757 51 290 0.0 0.0 0.02 0.40 0.01 95 1014.7
20260506222718 51 290 0.0 0.0 0.02 0.40 0.01 95 1014.8
20260506222701 51 290 0.0 0.0 0.02 0.40 0.01 95 1014.7
20260506222548 51 290 0.0 0.0 0.01 0.39 0.00 95 1014.7
20260506222241 51 290 0.0 0.0 0.02 0.39 0.00 95 1014.7
20260506222217 51 290 0.0 0.0 0.02 0.39 0.00 95 1014.8
20260506221842 51 290 0.0 0.0 0.02 0.39 0.00 95 1014.7
20260506221824 51 290 0.0 0.0 0.02 0.39 0.00 95 1014.8
20260506221720 51 290 0.0 0.0 0.02 0.39 0.00 95 1014.8
20260506221648 51 290 0.0 0.0 0.02 0.39 0.00 95 1014.8
20260506221626 51 290 0.0 0.0 0.02 0.39 0.00 95 1014.8
20260506221557 51 290 0.0 0.0 0.02 0.39 0.00 95 1014.9
20260506221135 51 290 0.0 0.0 0.02 0.39 0.39 94 1014.8
20260506221039 51 290 0.0 0.0 0.02 0.39 0.39 94 1014.8
20260506221003 51 290 0.0 0.0 0.02 0.39 0.39 94 1014.9
20260506220707 51 290 0.0 0.0 0.02 0.40 0.39 94 1014.8
20260506220600 51 290 0.0 0.0 0.02 0.40 0.39 94 1014.9
20260506220512 51 290 0.0 0.0 0.02 0.40 0.39 94 1014.9
20260506220355 51 290 0.0 0.0 0.02 0.40 0.39 94 1014.9
20260506215733 51 290 0.0 0.0 0.02 0.39 0.39 94 1014.9
20260506215639 51 290 0.0 0.0 0.02 0.39 0.39 94 1014.9
20260506215553 51 290 0.0 0.0 0.02 0.39 0.39 94 1014.9
20260506215242 51 290 0.0 0.0 0.02 0.39 0.39 94 1015.0
20260506215138 51 290 0.0 0.0 0.02 0.39 0.39 94 1015.0
20260506215108 51 290 0.0 0.0 0.02 0.39 0.39 93 1015.0
20260506214735 51 290 0.0 0.0 0.02 0.39 0.39 94 1015.0
20260506214420 52 290 0.0 0.0 0.02 0.39 0.39 94 1015.0
20260506214332 52 290 0.0 0.0 0.02 0.39 0.39 94 1015.0
20260506214247 52 290 0.0 0.0 0.02 0.39 0.39 94 1015.0
20260506214219 52 290 0.0 0.0 0.02 0.39 0.39 94 1015.0
20260506214137 52 290 0.0 0.0 0.02 0.40 0.39 93 1014.9
20260506213750 52 290 0.0 0.0 0.02 0.40 0.39 93 1015.0
20260506213736 52 290 0.0 0.0 0.02 0.40 0.39 93 1015.0
20260506213639 52 290 0.0 1.0 0.02 0.40 0.39 94 1015.0
20260506213533 52 290 0.0 1.0 0.02 0.39 0.38 93 1015.1
20260506213520 52 290 0.0 1.0 0.02 0.39 0.38 93 1015.0
20260506213442 52 290 0.0 1.0 0.02 0.39 0.38 93 1015.0
20260506213335 52 290 0.0 1.0 0.02 0.39 0.38 93 1015.0
20260506213300 52 290 0.0 1.0 0.02 0.39 0.38 93 1015.0
20260506213234 52 290 0.0 1.0 0.02 0.39 0.38 93 1015.0
20260506213115 52 265 0.0 0.0 0.02 0.39 0.38 93 1015.0
20260506212815 52 265 0.0 0.0 0.02 0.39 0.38 93 1015.0
20260506212716 52 265 0.0 0.0 0.02 0.39 0.38 92 1015.0
20260506212344 52 265 0.0 0.0 0.02 0.39 0.38 92 1015.0
20260506212327 52 265 0.0 0.0 0.02 0.39 0.38 92 1015.0
20260506212220 52 265 0.0 0.0 0.02 0.40 0.38 92 1015.1
20260506212128 52 265 0.0 0.0 0.02 0.40 0.38 92 1015.0
20260506212034 53 265 0.0 0.0 0.02 0.40 0.38 92 1015.1
20260506211709 53 265 0.0 0.0 0.02 0.40 0.38 92 1015.0
20260506211636 53 265 0.0 0.0 0.02 0.40 0.38 92 1015.0
20260506211230 53 265 0.0 0.0 0.02 0.39 0.37 92 1015.0
20260506211142 53 265 0.0 0.0 0.02 0.39 0.37 92 1014.9
20260506211103 53 265 0.0 0.0 0.02 0.39 0.37 92 1014.9
20260506210747 53 265 0.0 0.0 0.02 0.39 0.37 92 1015.0
20260506210705 53 265 0.0 0.0 0.02 0.39 0.37 91 1014.9
20260506210351 53 265 0.0 0.0 0.02 0.39 0.37 91 1014.8
20260506210023 53 265 0.0 0.0 0.02 0.39 0.37 91 1014.8
20260506210000 53 265 0.0 0.0 0.02 0.39 0.37 91 1014.9
20260506205921 53 265 0.0 0.0 0.02 0.39 0.37 91 1014.8
20260506205833 53 265 0.0 0.0 0.02 0.39 0.37 91 1014.7
20260506205522 54 265 0.0 0.0 0.02 0.40 0.37 90 1014.8
20260506205428 54 265 0.0 0.0 0.02 0.40 0.37 91 1014.7
20260506205052 54 265 0.0 0.0 0.02 0.39 0.37 90 1014.7
20260506204135 54 265 0.0 2.0 0.02 0.39 0.36 90 1014.7
20260506204043 54 265 0.0 2.0 0.02 0.39 0.36 90 1014.7
20260506203954 54 265 0.0 2.0 0.02 0.39 0.36 90 1014.6
20260506203932 54 265 0.0 2.0 0.02 0.39 0.36 90 1014.6
20260506203855 54 265 0.0 2.0 0.02 0.39 0.36 90 1014.5
20260506203754 55 265 1.0 2.0 0.02 0.39 0.36 90 1014.5
20260506203656 55 263 1.0 2.0 0.02 0.39 0.36 90 1014.5
20260506203627 55 251 1.0 2.0 0.02 0.39 0.36 90 1014.5
20260506203505 55 246 0.0 2.0 0.02 0.39 0.36 89 1014.6
20260506203342 55 261 1.0 2.0 0.02 0.40 0.36 89 1014.5
20260506203309 55 264 1.0 2.0 0.02 0.40 0.36 89 1014.5